Location: Blankensee
(53.5126°N, 14.3055°E)
Time: 19:01:47
(UTC+00:00)

Resurs 1-4 Rocket - Pass Details

Date: 08 August 2020
Orbit: 799 x 815 km, 98.6° (Epoch: 20 September)

Event Time Altitude Azimuth Distance (km) Brightness Sun altitude
Rises 02:43:39 0° 8° (N) 3,340 6.1 -6.6°
Reaches altitude 10° 02:46:37 10° 352° (N) 2,401 5.0 -6.3°
Maximum altitude 02:50:14 19° 309° (NW) 1,839 3.9 -5.9°
Drops below altitude 10° 02:53:50 10° 265° (W) 2,385 4.0 -5.4°
Enters shadow 02:55:29 - 254° (WSW) 2,878 4.4 -5.2°
